Location: Unspecified
(43.3830°N, 0.0000°E)
Time: 09:07:56
(UTC+00:00)

Vanguard 1 Rocket - Visible Passes

Search period start: 19 June 2019 00:00
Search period end: 29 June 2019 00:00
Orbit: 652 x 4224 km, 34.3° (Epoch: 18 June)

Date Brightness Start Highest point End Pass type
(mag) Time Alt. Az. Time Alt. Az. Time Alt. Az.
19 Jun 8.3 21:14:56 10° WSW 21:22:44 36° SSW 21:25:51 21° SE visible
20 Jun 8.7 22:30:59 10° WSW 22:35:51 21° SSW 22:35:51 21° SSW visible
21 Jun 8.4 21:17:31 10° W 21:25:26 34° SSW 21:28:33 21° SSE visible
22 Jun 9.0 22:34:08 10° WSW 22:38:28 17° SW 22:38:31 17° SW visible
23 Jun 8.6 21:20:11 10° W 21:28:02 30° SSW 21:31:12 20° SSE visible
24 Jun 8.8 20:06:01 10° W 20:17:13 43° SSW 20:23:24 10° SE visible
24 Jun 9.3 22:37:41 10° WSW 22:40:52 13° SW 22:41:10 13° SW visible
25 Jun 8.9 21:22:55 10° W 21:30:33 26° SSW 21:33:52 17° S visible
26 Jun 9.1 20:08:26 10° W 20:19:49 40° SSW 20:26:09 10° SE visible
27 Jun 9.1 21:25:47 10° W 21:32:55 22° SW 21:36:31 15° S visible
28 Jun 9.3 20:10:54 10° W 20:22:19 36° SSW 20:28:47 10° SE visible
